TimeCDT,TemperatureF,Dew PointF,Humidity,Sea Level PressureIn,VisibilityMPH,Wind Direction,Wind SpeedMPH,Gust SpeedMPH,PrecipitationIn,Events,Conditions,WindDirDegrees,DateUTC
12:15 AM,69.6,60.1,72,29.74,10.0,South,4.6,-,N/A,,Clear,170,2013-09-01 05:15:00
12:35 AM,69.1,60.6,74,29.74,10.0,ENE,3.5,-,N/A,,Scattered Clouds,60,2013-09-01 05:35:00
12:55 AM,68.5,60.6,76,29.78,10.0,NNW,9.2,-,N/A,,Scattered Clouds,330,2013-09-01 05:55:00
1:15 AM,68.0,60.8,78,29.79,10.0,SSW,5.8,-,N/A,,Clear,200,2013-09-01 06:15:00
1:35 AM,67.6,61.0,79,29.79,10.0,Calm,Calm,-,N/A,,Clear,0,2013-09-01 06:35:00
1:55 AM,65.7,59.9,82,29.78,10.0,Calm,Calm,-,N/A,,Clear,0,2013-09-01 06:55:00
2:15 AM,66.2,61.0,83,29.78,10.0,South,3.5,-,N/A,,Clear,180,2013-09-01 07:15:00
2:35 AM,66.9,60.3,79,29.78,10.0,SW,4.6,-,N/A,,Clear,220,2013-09-01 07:35:00
2:55 AM,66.6,60.8,82,29.78,10.0,WSW,4.6,-,N/A,,Clear,240,2013-09-01 07:55:00
3:15 AM,66.0,59.9,81,29.78,10.0,WSW,3.5,-,N/A,,Scattered Clouds,240,2013-09-01 08:15:00
3:35 AM,66.2,59.9,80,29.78,10.0,SW,3.5,-,N/A,,Mostly Cloudy,220,2013-09-01 08:35:00
3:55 AM,66.0,60.3,82,29.77,10.0,WSW,4.6,-,N/A,,Mostly Cloudy,250,2013-09-01 08:55:00
4:15 AM,66.2,60.8,83,29.77,10.0,West,3.5,-,N/A,,Scattered Clouds,260,2013-09-01 09:15:00
4:35 AM,65.7,61.2,85,29.77,10.0,WSW,4.6,-,N/A,,Scattered Clouds,240,2013-09-01 09:35:00
4:55 AM,66.4,61.3,84,29.77,10.0,West,4.6,-,N/A,,Overcast,270,2013-09-01 09:55:00
5:15 AM,67.1,61.2,81,29.77,10.0,WNW,5.8,-,N/A,,Overcast,290,2013-09-01 10:15:00
5:35 AM,66.2,60.8,83,29.77,10.0,WNW,8.1,-,N/A,,Scattered Clouds,290,2013-09-01 10:35:00
5:55 AM,65.1,60.3,84,29.77,10.0,NW,6.9,-,N/A,,Clear,310,2013-09-01 10:55:00
6:15 AM,64.0,60.1,87,29.78,10.0,WNW,8.1,-,N/A,,Clear,300,2013-09-01 11:15:00
6:35 AM,63.5,60.3,89,29.79,10.0,NW,6.9,-,N/A,,Clear,310,2013-09-01 11:35:00
6:55 AM,62.8,60.8,93,29.80,10.0,NW,8.1,-,N/A,,Clear,320,2013-09-01 11:55:00
7:15 AM,63.5,60.3,89,29.81,10.0,NW,5.8,-,N/A,,Clear,320,2013-09-01 12:15:00
7:35 AM,64.4,59.4,84,29.81,10.0,NW,4.6,-,N/A,,Clear,310,2013-09-01 12:35:00
7:55 AM,65.8,59.0,79,29.82,10.0,WNW,4.6,-,N/A,,Clear,290,2013-09-01 12:55:00
8:15 AM,66.2,59.2,78,29.82,10.0,WNW,6.9,-,N/A,,Scattered Clouds,290,2013-09-01 13:15:00
8:35 AM,66.2,59.2,78,29.82,10.0,WNW,11.5,-,N/A,,Scattered Clouds,290,2013-09-01 13:35:00
8:55 AM,65.8,59.0,79,29.83,10.0,WNW,11.5,-,N/A,,Mostly Cloudy,290,2013-09-01 13:55:00
9:15 AM,67.1,59.0,75,29.83,10.0,NW,9.2,-,N/A,,Overcast,320,2013-09-01 14:15:00
9:35 AM,67.8,58.8,73,29.84,10.0,NW,12.7,-,N/A,,Overcast,310,2013-09-01 14:35:00
9:55 AM,68.7,58.8,71,29.84,10.0,WNW,9.2,-,N/A,,Overcast,300,2013-09-01 14:55:00
10:15 AM,69.6,59.0,69,29.84,10.0,WNW,9.2,-,N/A,,Overcast,300,2013-09-01 15:15:00
10:35 AM,68.5,58.6,71,29.85,10.0,NW,8.1,-,N/A,,Overcast,320,2013-09-01 15:35:00
10:55 AM,70.2,58.6,67,29.84,10.0,NW,5.8,-,N/A,,Overcast,320,2013-09-01 15:55:00
11:15 AM,70.9,58.5,65,29.85,10.0,NW,8.1,-,N/A,,Overcast,320,2013-09-01 16:15:00
11:35 AM,72.0,57.9,61,29.84,10.0,NW,9.2,16.1,N/A,,Overcast,310,2013-09-01 16:35:00
11:55 AM,74.8,57.4,54,29.84,10.0,West,10.4,-,N/A,,Overcast,280,2013-09-01 16:55:00
12:15 PM,73.0,57.0,57,29.85,10.0,WNW,12.7,17.3,N/A,,Overcast,300,2013-09-01 17:15:00
12:35 PM,71.8,58.3,62,29.86,10.0,NW,12.7,-,N/A,,Overcast,310,2013-09-01 17:35:00
12:55 PM,71.8,58.3,62,29.86,10.0,NNW,12.7,18.4,N/A,,Overcast,330,2013-09-01 17:55:00
1:15 PM,73.4,57.6,58,29.86,10.0,NW,10.4,-,N/A,,Overcast,320,2013-09-01 18:15:00
1:35 PM,76.1,57.2,52,29.86,10.0,WNW,12.7,17.3,N/A,,Overcast,290,2013-09-01 18:35:00
1:55 PM,75.2,55.0,49,29.86,10.0,WNW,16.1,19.6,N/A,,Overcast,300,2013-09-01 18:55:00
2:15 PM,77.5,54.9,45,29.86,10.0,NW,13.8,17.3,N/A,,Overcast,320,2013-09-01 19:15:00
2:35 PM,74.1,55.8,53,29.86,10.0,NW,13.8,20.7,N/A,,Overcast,310,2013-09-01 19:35:00
2:55 PM,75.6,56.7,52,29.86,10.0,WNW,16.1,20.7,N/A,,Overcast,300,2013-09-01 19:55:00
3:15 PM,74.3,56.5,54,29.87,10.0,NW,12.7,20.7,N/A,,Overcast,320,2013-09-01 20:15:00
3:35 PM,73.2,56.3,55,29.87,10.0,NW,11.5,17.3,N/A,,Overcast,320,2013-09-01 20:35:00
3:55 PM,73.4,55.9,54,29.87,10.0,NW,12.7,16.1,N/A,,Overcast,320,2013-09-01 20:55:00
4:15 PM,72.1,55.8,56,29.88,10.0,NW,13.8,18.4,N/A,,Overcast,320,2013-09-01 21:15:00
4:35 PM,71.8,56.3,58,29.88,10.0,NW,16.1,20.7,N/A,,Overcast,310,2013-09-01 21:35:00
4:55 PM,71.2,56.5,60,29.88,10.0,NW,12.7,-,N/A,,Overcast,310,2013-09-01 21:55:00
5:15 PM,70.9,56.3,60,29.89,10.0,NW,13.8,19.6,N/A,,Overcast,310,2013-09-01 22:15:00
5:35 PM,70.7,56.3,60,29.89,10.0,NW,9.2,-,N/A,,Overcast,320,2013-09-01 22:35:00
5:55 PM,69.8,55.9,61,29.90,10.0,NW,13.8,18.4,N/A,,Overcast,320,2013-09-01 22:55:00
6:15 PM,69.8,55.8,61,29.90,10.0,NW,11.5,18.4,N/A,,Overcast,310,2013-09-01 23:15:00
6:35 PM,69.3,55.6,62,29.91,10.0,NW,10.4,17.3,N/A,,Overcast,320,2013-09-01 23:35:00
6:55 PM,69.1,55.9,63,29.91,10.0,NW,9.2,-,N/A,,Overcast,310,2013-09-01 23:55:00
7:15 PM,68.9,55.9,63,29.91,10.0,NNW,9.2,-,N/A,,Overcast,330,2013-09-02 00:15:00
7:35 PM,68.4,55.9,64,29.92,10.0,NW,10.4,-,N/A,,Overcast,310,2013-09-02 00:35:00
7:55 PM,68.0,56.1,66,29.92,10.0,NW,10.4,-,N/A,,Overcast,310,2013-09-02 00:55:00
8:15 PM,67.6,56.3,67,29.92,10.0,NW,10.4,-,N/A,,Overcast,320,2013-09-02 01:15:00
8:35 PM,67.6,56.3,67,29.93,10.0,NW,10.4,-,N/A,,Overcast,320,2013-09-02 01:35:00
8:55 PM,67.1,56.3,68,29.94,10.0,North,8.1,-,N/A,,Overcast,350,2013-09-02 01:55:00
9:15 PM,66.2,54.1,65,29.95,10.0,North,11.5,-,N/A,,Overcast,360,2013-09-02 02:15:00
9:35 PM,64.4,53.2,67,29.96,10.0,North,8.1,-,N/A,,Scattered Clouds,350,2013-09-02 02:35:00
9:55 PM,62.6,52.7,70,29.96,10.0,North,6.9,-,N/A,,Clear,350,2013-09-02 02:55:00
10:15 PM,62.4,52.7,70,29.97,10.0,NNW,6.9,-,N/A,,Scattered Clouds,340,2013-09-02 03:15:00
10:35 PM,61.3,52.3,72,29.97,10.0,North,6.9,-,N/A,,Scattered Clouds,350,2013-09-02 03:35:00
10:55 PM,60.8,52.3,74,29.97,10.0,North,6.9,-,N/A,,Scattered Clouds,350,2013-09-02 03:55:00
11:15 PM,61.0,52.7,74,29.97,10.0,North,6.9,-,N/A,,Mostly Cloudy,350,2013-09-02 04:15:00
11:35 PM,60.8,52.5,74,29.98,10.0,North,6.9,-,N/A,,Overcast,350,2013-09-02 04:35:00
11:55 PM,60.3,52.3,75,29.98,10.0,North,5.8,-,N/A,,Overcast,350,2013-09-02 04:55:00